TimePST,TemperatureF,Dew PointF,Humidity,Sea Level PressureIn,VisibilityMPH,Wind Direction,Wind SpeedMPH,Gust SpeedMPH,PrecipitationIn,Events,Conditions,WindDirDegrees,DateUTC
12:52 AM,35.1,25.0,67,30.07,-9999.0,NE,8.1,-,N/A,,Unknown,50,2013-03-03 08:52:00
1:52 AM,34.0,24.1,67,30.06,-9999.0,NE,4.6,-,N/A,,Unknown,40,2013-03-03 09:52:00
2:52 AM,37.9,25.0,60,30.03,-9999.0,NNE,5.8,-,N/A,,Unknown,30,2013-03-03 10:52:00
3:52 AM,36.0,25.0,64,30.04,-9999.0,Calm,Calm,-,N/A,,Unknown,0,2013-03-03 11:52:00
4:52 AM,37.9,24.1,57,30.04,-9999.0,NE,6.9,-,N/A,,Unknown,50,2013-03-03 12:52:00
5:52 AM,35.1,24.1,64,30.04,-9999.0,ENE,6.9,-,N/A,,Unknown,60,2013-03-03 13:52:00
6:52 AM,37.0,26.1,65,30.06,-9999.0,NE,4.6,-,N/A,,Unknown,40,2013-03-03 14:52:00
7:52 AM,48.9,28.9,46,30.06,-9999.0,Variable,3.5,-,N/A,,Unknown,0,2013-03-03 15:52:00
8:52 AM,54.0,32.0,43,30.06,-9999.0,Calm,Calm,-,N/A,,Unknown,0,2013-03-03 16:52:00
9:52 AM,64.0,28.9,27,30.04,-9999.0,Variable,4.6,-,N/A,,Unknown,0,2013-03-03 17:52:00
10:52 AM,68.0,23.0,18,30.03,-9999.0,SW,16.1,25.3,N/A,,Unknown,220,2013-03-03 18:52:00
11:52 AM,68.0,24.1,19,29.99,-9999.0,SW,18.4,-,N/A,,Unknown,220,2013-03-03 19:52:00
12:52 PM,68.0,25.0,20,29.98,-9999.0,SW,13.8,-,N/A,,Unknown,230,2013-03-03 20:52:00
1:52 PM,66.9,21.0,17,29.95,-9999.0,SW,19.6,25.3,N/A,,Unknown,220,2013-03-03 21:52:00
2:52 PM,66.9,21.9,18,29.94,-9999.0,SW,17.3,-,N/A,,Unknown,230,2013-03-03 22:52:00
3:52 PM,63.0,30.0,29,29.95,-9999.0,SW,17.3,23.0,N/A,,Unknown,230,2013-03-03 23:52:00
4:52 PM,59.0,32.0,36,29.95,-9999.0,SW,13.8,-,N/A,,Unknown,220,2013-03-04 00:52:00
5:52 PM,57.0,25.0,29,29.96,-9999.0,WSW,10.4,-,N/A,,Unknown,240,2013-03-04 01:52:00
6:52 PM,54.0,28.0,37,29.97,-9999.0,West,6.9,-,N/A,,Unknown,260,2013-03-04 02:52:00
7:52 PM,48.0,28.9,48,29.97,-9999.0,Calm,Calm,-,N/A,,Unknown,0,2013-03-04 03:52:00
8:52 PM,48.9,32.0,52,29.96,-9999.0,Calm,Calm,-,N/A,,Unknown,0,2013-03-04 04:52:00
9:52 PM,41.0,30.0,65,29.96,-9999.0,Calm,Calm,-,N/A,,Unknown,0,2013-03-04 05:52:00
10:52 PM,46.0,35.1,66,29.94,-9999.0,Calm,Calm,-,N/A,,Unknown,0,2013-03-04 06:52:00
11:52 PM,43.0,39.0,86,29.94,-9999.0,South,6.9,-,N/A,,Unknown,190,2013-03-04 07:52:00